FW5912 Galveston TX US current weather conditions

sailwx.info

Wind from 291

Air temperature 33.9° C
Dewpoint 26.1° C

Last reported at 2020-Aug-11 19:02 UTC.
Time now 2020-Aug-11 19:27 UTC

Location: N 29°12' W 094°57'.
View on Google Maps.

See reports from other nearby stations

  
Tides and Currents Weather Stations Pressure Air Temp Water Temp Dewpoint Dewpoint Depression Visibility Wind Speed Wind Dir Waves Ship Positions
date/time (UTC)wind fromknots sea level pressurealtimeterstation pressurevisibilityair tempwater tempwave heightnotes
2020-Aug-11 19:02 291 33.9
2020-Aug-11 18:47 33.9
2020-Aug-11 18:32 175 0 gusting 3 33.9
2020-Aug-11 18:17 34.4
2020-Aug-11 18:02 172 33.9
2020-Aug-11 17:46 079 33.9
2020-Aug-11 17:31 319 33.9
2020-Aug-11 17:16 097 0 gusting 4 33.9
2020-Aug-11 17:01 237 34.4
2020-Aug-11 16:46 245 0 gusting 5 33.9
2020-Aug-11 16:31 33.9
2020-Aug-11 16:16 019 0 gusting 6 34.4
2020-Aug-11 16:01 33.9
2020-Aug-11 15:46 241 33.9
2020-Aug-11 15:33 322 0 gusting 6 33.9
2020-Aug-11 15:16 220 3 gusting 6 33.3
2020-Aug-11 15:02 169 0 gusting 7 33.3
2020-Aug-11 14:47 267 32.8
2020-Aug-11 14:31 247 1 gusting 6 32.8
2020-Aug-11 14:16 258 0 gusting 4 32.8
2020-Aug-11 14:01 009 32.2
2020-Aug-11 13:47 238 31.7
2020-Aug-11 13:31 242 0 gusting 5 31.7
2020-Aug-11 13:17 179 31.1
2020-Aug-11 13:03 110 30.6
2020-Aug-11 12:46 317 30.0
2020-Aug-11 12:31 301 30.0
2020-Aug-11 12:16 079 29.4
2020-Aug-11 12:01 236 0 gusting 4 28.9
2020-Aug-11 11:46 180 28.9
2020-Aug-11 11:31 023 28.9
2020-Aug-11 11:17 269 0 gusting 5 28.9
2020-Aug-11 11:01 302 28.9
2020-Aug-11 10:47 174 28.9
2020-Aug-11 10:31 172 28.9
2020-Aug-11 10:16 146 28.9
2020-Aug-11 10:01 29.4
2020-Aug-11 09:46 101 29.4
2020-Aug-11 09:31 29.4
2020-Aug-11 09:16 237 0 gusting 6 29.4
2020-Aug-11 09:01 093 0 gusting 7 29.4
2020-Aug-11 08:46 200 29.4
2020-Aug-11 08:31 114 0 gusting 5 29.4
2020-Aug-11 08:16 29.4
2020-Aug-11 08:02 29.4
2020-Aug-11 07:46 274 29.4
2020-Aug-11 07:31 29.4
2020-Aug-11 07:16 29.4
2020-Aug-11 07:01 169 0 gusting 3 29.4
2020-Aug-11 06:48 208 29.4
2020-Aug-11 06:33 027 0 gusting 4 29.4
2020-Aug-11 06:16 143 29.4
2020-Aug-11 06:01 155 29.4
2020-Aug-11 05:48 199 0 gusting 3 29.4
2020-Aug-11 05:32 110 29.4
2020-Aug-11 05:16 29.4
2020-Aug-11 05:01 155 1 gusting 6 29.4
2020-Aug-11 04:47 091 0 gusting 6 29.4
2020-Aug-11 04:33 150 0 gusting 6 29.4
2020-Aug-11 04:16 152 0 gusting 6 29.4
2020-Aug-11 04:02 29.4
2020-Aug-11 03:46 144 29.4
2020-Aug-11 03:31 172 29.4
2020-Aug-11 03:16 167 0 gusting 5 29.4
2020-Aug-11 03:02 134 0 gusting 5 29.4
2020-Aug-11 02:47 271 29.4
2020-Aug-11 02:32 130 29.4
2020-Aug-11 02:16 29.4
2020-Aug-11 02:01 139 0 gusting 3 29.4
2020-Aug-11 01:47 230 0 gusting 6 30.0
2020-Aug-11 01:32 110 0 gusting 5 30.0
2020-Aug-11 01:17 152 0 gusting 4 30.0
2020-Aug-11 01:02 30.0
2020-Aug-11 00:47 174 30.0
2020-Aug-11 00:31 173 0 gusting 5 30.6
2020-Aug-11 00:17 104 30.6
2020-Aug-11 00:02 243 0 gusting 5 30.6
2020-Aug-10 23:47 31.1
2020-Aug-10 23:31 222 0 gusting 5 31.7
2020-Aug-10 23:16 138 0 gusting 5 31.7
2020-Aug-10 23:01 180 0 gusting 5 31.7
2020-Aug-10 22:48 157 1 gusting 6 31.7
2020-Aug-10 22:31 234 0 gusting 5 31.7
2020-Aug-10 22:16 110 1 gusting 6 32.2
2020-Aug-10 22:02 219 0 gusting 4 32.2
2020-Aug-10 21:48 181 1 gusting 5 32.2
2020-Aug-10 21:32 105 0 gusting 4 32.2
2020-Aug-10 21:17 160 0 gusting 6 32.2
2020-Aug-10 21:01 204 32.8
2020-Aug-10 20:45 32.8
2020-Aug-10 20:31 134 0 gusting 4 32.8
2020-Aug-10 20:17 33.3
2020-Aug-10 20:01 165 0 gusting 5 33.3
2020-Aug-10 19:46 32.8
2020-Aug-10 19:31 163 0 gusting 5 32.8
2020-Aug-10 19:16 118 1 gusting 6 32.8
2020-Aug-10 19:01 212 0 gusting 4 32.8
2020-Aug-10 18:46 162 1 gusting 4 33.3
2020-Aug-10 18:31 127 33.3
2020-Aug-10 18:18 165 0 gusting 3 33.3
2020-Aug-10 18:02 198 0 gusting 3 33.3
2020-Aug-10 17:46 169 33.3
2020-Aug-10 17:31 149 0 gusting 4 33.3
2020-Aug-10 17:16 33.3
2020-Aug-10 17:02 33.9
2020-Aug-10 16:46 141 33.9
2020-Aug-10 16:31 33.9
2020-Aug-10 16:16 114 0 gusting 4 33.3
2020-Aug-10 16:01 33.3
2020-Aug-10 15:46 119 33.3
2020-Aug-10 15:31 131 33.3
2020-Aug-10 15:17 094 0 gusting 4 33.3
2020-Aug-10 15:03 210 32.8
2020-Aug-10 14:47 131 0 gusting 3 32.2
2020-Aug-10 14:31 144 0 gusting 3 32.2
2020-Aug-10 14:17 146 0 gusting 2 32.2
2020-Aug-10 14:02 160 32.2
2020-Aug-10 13:46 241 31.7
2020-Aug-10 13:34 171 31.7
2020-Aug-10 13:16 127 31.1
2020-Aug-10 13:02 30.6
2020-Aug-10 12:46 141 30.0
2020-Aug-10 12:31 29.4
2020-Aug-10 12:17 238 29.4
2020-Aug-10 12:01 28.9
2020-Aug-10 11:46 300 28.9
2020-Aug-10 11:31 28.9
2020-Aug-10 11:16 156 28.9
2020-Aug-10 11:01 024 28.9
2020-Aug-10 10:46 314 28.9
2020-Aug-10 10:31 28.9
2020-Aug-10 10:16 156 0 gusting 3 28.9
2020-Aug-10 10:01 094 0 gusting 6 28.9
2020-Aug-10 09:48 224 0 gusting 2 28.9
2020-Aug-10 09:34 068 0 gusting 4 29.4
2020-Aug-10 09:16 063 0 gusting 5 29.4
2020-Aug-10 09:03 236 0 gusting 5 29.4
2020-Aug-10 08:47 041 1 gusting 6 29.4
2020-Aug-10 08:31 103 0 gusting 3 29.4
2020-Aug-10 08:17 152 0 gusting 4 28.9
2020-Aug-10 08:01 195 0 gusting 4 28.9
2020-Aug-10 07:46 165 1 gusting 6 29.4
2020-Aug-10 07:31 255 0 gusting 4 29.4
2020-Aug-10 07:16 120 0 gusting 6 29.4
2020-Aug-10 07:02 29.4
2020-Aug-10 06:49 005 0 gusting 5 29.4
2020-Aug-10 06:31 209 1 gusting 4 29.4
2020-Aug-10 06:16 304 0 gusting 5 29.4
2020-Aug-10 06:02 221 0 gusting 4 29.4
2020-Aug-10 05:47 158 0 gusting 4 29.4
2020-Aug-10 05:32 236 0 gusting 5 29.4
2020-Aug-10 05:17 226 29.4
2020-Aug-10 05:02 29.4
2020-Aug-10 04:48 268 29.4
2020-Aug-10 04:30 257 0 gusting 3 29.4
2020-Aug-10 04:16 108 29.4
2020-Aug-10 04:01 150 29.4
2020-Aug-10 03:46 123 0 gusting 3 29.4
2020-Aug-10 03:32 295 29.4
2020-Aug-10 03:16 177 1 gusting 5 29.4
2020-Aug-10 03:02 193 0 gusting 5 29.4
2020-Aug-10 02:46 213 29.4
2020-Aug-10 02:32 056 0 gusting 6 29.4
2020-Aug-10 02:17 281 0 gusting 2 29.4
2020-Aug-10 02:01 229 0 gusting 4 29.4
2020-Aug-10 01:46 257 29.4
2020-Aug-10 01:31 29.4
2020-Aug-10 01:16 29.4
2020-Aug-10 01:01 30.0
2020-Aug-10 00:47 30.0
2020-Aug-10 00:32 163 30.0
2020-Aug-10 00:16 275 30.0
2020-Aug-10 00:02 101 30.0
2020-Aug-09 23:47 001 30.6
2020-Aug-09 23:31 141 0 gusting 3 30.6
2020-Aug-09 23:16 232 31.1
2020-Aug-09 23:01 070 31.1
2020-Aug-09 22:46 229 0 gusting 5 31.7
2020-Aug-09 22:31 32.2
2020-Aug-09 22:16 289 0 gusting 6 32.2
2020-Aug-09 22:01 098 0 gusting 4 32.2
2020-Aug-09 21:46 180 0 gusting 6 32.2
2020-Aug-09 21:32 120 1 gusting 5 32.2
2020-Aug-09 21:16 110 0 gusting 6 32.8
2020-Aug-09 21:01 101 0 gusting 4 32.8
2020-Aug-09 20:49 027 0 gusting 4 32.8
2020-Aug-09 20:31 156 0 gusting 5 32.8
2020-Aug-09 20:16 053 33.3
2020-Aug-09 20:01 006 0 gusting 6 33.3
2020-Aug-09 19:46 172 0 gusting 5 33.3
2020-Aug-09 19:32 33.3
2020-Aug-09 19:18 33.9
2020-Aug-09 19:02 266 33.9